Regional Weather Roundup
Issued by NWS

Home | Current Version | Previous Version | Graphics & Text | Print | Product List | Glossary On
Versions: 1 2 3 4 5 6 7 8 9 10 11 12 13 14 15 16 17 18 19 20 21 22 23 24 25 26 27 28 29 30 31 32 33 34 35 36 37 38 39 40 41 42 43 44 45 46 47 48 49 50
000
ASUS43 KIND 170000
RWRIN

WEATHER ROUNDUP FOR INDIANA
NATIONAL WEATHER SERVICE INDIANAPOLIS IN
800 PM EDT MON OCT 16 2017

NOTE: "FAIR" INDICATES FEW OR NO CLOUDS BELOW 12,000 FEET WITH NO
SIGNIFICANT WEATHER AND/OR OBSTRUCTIONS TO VISIBILITY.

* - STATION DOES NOT REPORT WEATHER SUCH AS PRECIPITATION OR FOG.

+ - STATION NOT QUALITY CONTROLLED BY THE NATIONAL WEATHER SERVICE.
    USE DATA WITH CAUTION...ESPECIALLY DEWPOINT AND RELATIVE
    HUMIDITY OBSERVATIONS.

INZ001>003-010>013-019-020-170100-
NORTHWEST INDIANA

CITY           SKY/WX    TMP DP  RH WIND       PRES   REMARKS
GARY /AIRPORT/ CLEAR     50  41  71 VRB3      30.24R
MONTICELLO +   CLEAR     53  37  54 S3        30.25S
6HR MIN TEMP:  53; 6HR MAX TEMP:  63;


$$

LMZ046-743>745-170100-
SOUTHERN LAKE MICHIGAN

STATION/POSITION TIME  TEMP    WIND        PRES    WAVE
                       AIR SEA DIR/SP/G            HT
                 (UTC) (F)     (DEG/KT/KT) (MB)    (FT)
BURNS HARBOR     2340   60     220/  6/  8 1024.0S
MICHIGAN CITY    2330   58     190/  3/  3   N/A
5NW MICH CITY    2340   58 58  190/  4/  4   N/A     1

$$

INZ004-005-014>016-021>024-170100-
NORTH CENTRAL INDIANA

CITY           SKY/WX    TMP DP  RH WIND       PRES   REMARKS
GOSHEN         CLEAR     49  40  71 CALM      30.25S
6HR MIN TEMP:  49; 6HR MAX TEMP:  59;

PERU/GRISSOM   CLEAR     49  38  67 S5        30.26S
6HR MIN TEMP:  49; 6HR MAX TEMP:  62;

SOUTH BEND     CLEAR     49  41  74 CALM      30.25S
6HR MIN TEMP:  49; 6HR MAX TEMP:  59;


$$

INZ006>009-017-018-025>027-170100-
NORTHEAST INDIANA

CITY           SKY/WX    TMP DP  RH WIND       PRES   REMARKS
FORT WAYNE     CLEAR     49  38  65 S3        30.27S
6HR MIN TEMP:  49; 6HR MAX TEMP:  61;

KENDALLVILLE + CLEAR     47  40  77 CALM      30.26S

$$

INZ028-029-035-036-043>045-051>053-170100-
WEST CENTRAL INDIANA

CITY           SKY/WX    TMP DP  RH WIND       PRES   REMARKS
LAFAYETTE      CLEAR     50  42  74 CALM      30.26S
6HR MIN TEMP:  50; 6HR MAX TEMP:  63;

TERRE HAUTE    CLEAR     51  40  65 CALM      30.29S
6HR MIN TEMP:  51; 6HR MAX TEMP:  64;


$$

INZ030>032-037>040-046>048-054>057-064-065-170100-
CENTRAL INDIANA

CITY           SKY/WX    TMP DP  RH WIND       PRES   REMARKS
COLUMBUS       CLEAR     50  39  66 CALM      30.30S
INDIANAPOLIS   CLEAR     54  36  50 W6        30.30R
6HR MIN TEMP:  54; 6HR MAX TEMP:  62;

-EAGLE CREEK   CLEAR     55  36  48 SW3       30.28S
6HR MIN TEMP:  55; 6HR MAX TEMP:  63;

KOKOMO +       CLEAR     50  39  66 S3        30.28S
6HR MIN TEMP:  50; 6HR MAX TEMP:  61;

MT COMFORT *+  CLEAR     46  43  87 CALM      30.29S
SHELBYVILLE    CLEAR     49  41  74 CALM      30.29R
6HR MIN TEMP:  49; 6HR MAX TEMP:  63;


$$

INZ033-034-041-042-049-050-058-059-170100-
EAST CENTRAL INDIANA

CITY           SKY/WX    TMP DP  RH WIND       PRES   REMARKS
MUNCIE         CLEAR     47  41  80 CALM      30.28S
6HR MIN TEMP:  47; 6HR MAX TEMP:  63;

RICHMOND +     CLEAR     46  36  66 CALM      30.30R

$$

INZ060-061-067>069-081>083-085>088-170100-
SOUTHWEST INDIANA

CITY           SKY/WX    TMP DP  RH WIND       PRES   REMARKS
EVANSVILLE     CLEAR     53  39  59 CALM      30.31S
6HR MIN TEMP:  53; 6HR MAX TEMP:  65;

HUNTINGBURG +  CLEAR     52  40  63 CALM      30.31R
6HR MIN TEMP:  52; 6HR MAX TEMP:  62;


$$

INZ062-063-066-070>080-084-089>092-170100-
SOUTH CENTRAL AND SOUTHEAST INDIANA

CITY           SKY/WX    TMP DP  RH WIND       PRES   REMARKS
BLOOMINGTON    CLEAR     49  39  68 CALM      30.30R
6HR MIN TEMP:  49; 6HR MAX TEMP:  63;

MADISON *+     CLEAR     48  41  76 CALM      30.32R
SEYMOUR +      CLEAR     54  36  50 CALM      30.30S

$$




USA.gov is the U.S. government's official web portal to all federal, state and local government web resources and services.